NAVACERRADA, MADRID

latitud = 40° 46' 50''N | longitud = 004° 00' 37''W
1894 metros sobre el nivel del mar | datos mensuales

Fecha, hora, temperatura, viento dirección y velocidad, humedad y presión.

  • 22-11-2017 09:00:00 | 5.90°C | Sur |13.00 km/h | 25.00% | 811.50 hPa
  • 22-11-2017 08:00:00 | 6.10°C | Sudoeste |15.00 km/h | 27.00% | 811.10 hPa
  • 22-11-2017 07:00:00 | 5.60°C | Sudoeste |15.00 km/h | 30.00% | 811.30 hPa
  • 22-11-2017 06:00:00 | 5.30°C | Sudoeste |9.00 km/h | 31.00% | 811.70 hPa
  • 22-11-2017 05:00:00 | 6.00°C | Oeste |8.00 km/h | 28.00% | 812.00 hPa
  • 22-11-2017 04:00:00 | 5.60°C | Oeste |11.00 km/h | 28.00% | 812.40 hPa
  • 22-11-2017 03:00:00 | 6.50°C | Oeste |10.00 km/h | 24.00% | 812.90 hPa
  • 22-11-2017 02:00:00 | 6.90°C | Oeste |10.00 km/h | 20.00% | 813.20 hPa
  • 22-11-2017 01:00:00 | 6.50°C | Oeste |8.00 km/h | 22.00% | 813.90 hPa
  • 22-11-2017 00:00:00 | 6.10°C | Oeste |11.00 km/h | 30.00% | 814.10 hPa
  • 21-11-2017 23:00:00 | 6.60°C | Sudoeste |6.00 km/h | 31.00% | 814.30 hPa
  • 21-11-2017 22:00:00 | 5.60°C | Sur |5.00 km/h | 42.00% | 814.10 hPa
  • 21-11-2017 21:00:00 | 6.40°C | Sudoeste |6.00 km/h | 40.00% | 814.70 hPa
  • 21-11-2017 20:00:00 | 5.80°C | Sur |5.00 km/h | 43.00% | 814.80 hPa
  • 21-11-2017 19:00:00 | 6.50°C | Noroeste |9.00 km/h | 35.00% | 815.00 hPa
  • 21-11-2017 18:00:00 | 7.70°C | Nordeste |2.00 km/h | 34.00% | 814.90 hPa
  • 21-11-2017 17:00:00 | 10.50°C | Norte |3.00 km/h | 42.00% | 815.00 hPa
  • 21-11-2017 16:00:00 | 10.90°C | Este |3.00 km/h | 30.00% | 815.00 hPa
  • 21-11-2017 15:00:00 | 12.20°C | Noroeste |2.00 km/h | 29.00% | 815.20 hPa
  • 21-11-2017 14:00:00 | 12.10°C | Sur |3.00 km/h | 27.00% | 815.80 hPa
  • 21-11-2017 13:00:00 | 11.60°C | Noroeste |3.00 km/h | 31.00% | 816.20 hPa
  • 21-11-2017 12:00:00 | 12.20°C | Este |3.00 km/h | 25.00% | 816.90 hPa
  • 21-11-2017 11:00:00 | 10.10°C | Este |3.00 km/h | 28.00% | 816.90 hPa
  • 21-11-2017 10:00:00 | 7.90°C | Este |3.00 km/h | 30.00% | 816.90 hPa